Temp
10 9 9 9 9 9 6 9 9 12 12 14 14 14 13 12 9 8 7 6 5 5 4 4 3 3 3 3 4 5 5 4 3 3 4 4 4 5 4 3 4 3 4 4
7 8 8 7 9 9 8 8 10 11 11 14 14 13 12 11 8 7 6 5 4 4 3 3 2 2 2 1 2 3 3 2 2 2 3 3 2 2 2 2 2 1 1 -0
9 8 8 8 9 9 9 9 10 8 12 13 13 12 11 10 8 7 5 4 4 3 2 2 1 1 1 0 2 3 2 2 2 2 2 2 2 2 1 0 -0 -0 -1 -1
9 8 8 10 10 11 10 10 10 11 12 13 12 11 8 7 7 7 5 3 2 2 1 1 0 0 0 1 2 2 2 2 2 1 2 0 -0 0 -0 -1 -1 -1 -1 -1
8 10 12 12 9 9 10 11 11 11 12 12 11 8 8 6 5 5 4 3 2 1 1 1 -0 -0 1 0 1 1 1 1 1 1 0 -0 -0 -1 -1 -1 -1 -1 -1 -1
7 7 10 11 11 10 11 11 11 12 12 12 10 10 11 6 5 3 2 2 1 -0 1 1 1 -0 -1 0 1 0 0 0 0 -0 -0 -2 -2 -2 -2 -2 -1 -2 -2 -1
8 8 10 12 10 10 10 10 11 10 10 11 10 10 7 6 5 3 1 0 -0 -1 1 0 0 0 -0 0 -0 -1 -0 -1 -0 -1 -1 -1 -2 -2 -2 -1 -1 -1 -1 -2
8 7 7 11 9 10 10 10 10 10 9 9 9 7 6 5 4 3 2 0 -1 -1 0 1 0 -0 -0 0 -0 -0 -2 -1 -1 -2 -2 -1 -1 -1 -2 -2 -2 -2 -2 -2
9 10 11 10 10 10 9 9 9 8 9 8 7 6 6 5 4 3 2 -0 -1 1 1 1 0 0 -0 -0 0 0 -1 -1 -1 -1 -1 -1 -1 -1 -1 -1 -2 -2 -2 -3
10 12 11 11 10 9 9 9 9 8 7 7 7 6 5 5 5 5 3 1 0 1 1 1 0 -1 -1 -1 -1 -1 -1 -0 -0 -1 -1 -1 -1 -1 -1 -2 -2 -3 -3 -3
10 12 11 10 10 9 9 9 8 8 7 7 6 6 5 5 6 5 4 2 -1 1 2 1 1 -1 -1 -1 -1 -1 -0 -0 -0 -0 -1 -1 -1 -1 -1 -1 -2 -2 -3 -3
11 12 11 10 8 8 8 8 8 7 7 7 7 6 5 4 5 5 5 3 2 2 2 2 1 0 -0 -0 -0 -0 -0 0 -0 -0 -0 -0 -0 -1 -1 -1 -2 -2 -2 -3
10 7 7 7 7 7 7 7 8 7 6 6 6 6 4 4 4 5 4 4 4 3 2 2 1 1 0 0 0 -0 -0 0 0 -0 -0 -0 -1 -1 -1 -1 -2 -2 -3 -3
6 5 6 6 7 4 5 6 6 6 6 6 6 6 5 3 3 4 5 5 4 3 2 2 1 1 1 1 1 0 0 -0 -0 -0 -0 -1 -1 -1 -2 -2 -3 -3 -3 -4
5 5 5 5 5 5 5 5 6 5 5 5 6 6 5 4 4 5 4 4 3 3 2 2 1 1 1 1 1 1 0 0 -0 -0 -1 -1 -1 -2 -2 -2 -2 -3 -3 -4
4 4 4 4 4 4 4 4 4 5 4 5 5 5 5 4 3 3 4 3 3 3 3 3 2 1 1 1 1 1 0 0 -0 -1 -1 -1 -1 -1 -2 -2 -3 -3 -4 -4
3 3 3 3 3 2 2 2 3 3 4 4 5 4 4 4 3 3 4 3 3 3 3 3 3 2 1 1 0 0 0 -0 -0 -1 -1 -1 -1 -2 -2 -2 -3 -3 -4 -4
2 2 1 1 0 0 1 1 1 1 2 3 4 4 4 3 3 3 3 3 2 2 2 2 2 1 1 1 0 0 -0 -0 -0 -1 -1 -1 -2 -2 -2 -3 -3 -3 -4 -5
-1 -1 0 0 0 0 1 1 1 1 2 3 3 3 4 3 3 3 2 2 2 2 2 1 1 0 0 1 0 -0 -0 -0 -1 -1 -1 -2 -2 -2 -2 -3 -3 -3 -4 -5
-0 -0 -0 0 0 0 0 0 1 1 1 2 2 2 3 3 3 2 2 2 2 2 1 1 0 -0 -0 0 -0 -0 -1 -1 -1 -1 -2 -2 -2 -2 -3 -3 -3 -4 -4 -5
-0 -0 -0 -0 0 0 0 1 0 1 1 1 1 1 2 2 2 1 1 1 2 1 -0 -0 -0 -0 -0 -2 -1 -0 -1 -1 -1 -1 -2 -2 -2 -3 -3 -3 -3 -4 -4 -5
0 -0 0 0 -0 -0 0 0 0 0 0 1 1 1 1 1 1 1 1 0 -0 -1 -0 -0 -1 -1 -0 -1 -2 -1 -1 -1 -1 -2 -2 -2 -2 -3 -3 -3 -3 -4 -4 -5
1 1 0 0 0 0 0 -0 0 0 0 0 0 0 0 0 0 0 1 0 -0 -0 -0 -0 -0 -1 -1 -1 -1 -1 -1 -1 -1 -2 -2 -2 -3 -3 -3 -3 -3 -4 -4 -5
1 1 0 0 0 -0 -0 -0 -0 -0 -0 -0 -0 -0 -0 -0 -0 -0 -0 -0 -1 -1 -1 -1 -2 -2 -2 -2 -2 -2 -2 -2 -2 -2 -2 -3 -3 -3 -3 -3 -3 -4 -4 -5
1 0 -0 -0 -1 -1 -1 -1 -1 -1 -1 -1 -1 -1 -1 -1 -1 -1 -1 -1 -1 -1 -1 -1 -2 -3 -4 -2 -2 -3 -3 -3 -2 -2 -2 -3 -3 -3 -3 -3 -4 -4 -4 -5
-0 -1 -1 -1 -1 -1 -2 -2 -2 -2 -1 -1 -2 -2 -2 -2 -2 -2 -2 -2 -2 -2 -2 -2 -3 -3 -4 -3 -4 -4 -4 -2 -3 -3 -3 -3 -3 -3 -3 -4 -4 -4 -4 -5
-1 -1 -2 -2 -2 -2 -2 -2 -2 -3 -3 -2 -2 -2 -2 -3 -2 -2 -2 -2 -2 -2 -2 -3 -3 -3 -4 -4 -4 -4 -4 -3 -4 -4 -4 -3 -3 -3 -3 -4 -4 -4 -5 -5
Height
1464 1465 1466 1468 1469 1470 1480 1472 1472 1461 1460 1454 1458 1462 1463 1466 1469 1470 1470 1471 1472 1472 1472 1471 1469 1468 1466 1465 1465 1464 1462 1460 1458 1455 1453 1451 1451 1450 1449 1448 1447 1447 1446 1444
1473 1468 1469 1470 1465 1465 1469 1470 1466 1464 1462 1456 1458 1459 1461 1463 1467 1469 1469 1469 1470 1469 1470 1469 1468 1466 1466 1466 1464 1462 1460 1459 1457 1455 1453 1452 1452 1450 1449 1448 1448 1447 1445 1446
1461 1468 1467 1464 1456 1458 1460 1460 1462 1465 1456 1457 1458 1460 1462 1465 1466 1467 1467 1467 1467 1468 1468 1468 1466 1466 1465 1465 1463 1461 1459 1457 1456 1455 1453 1454 1453 1452 1453 1451 1451 1450 1451 1451
1463 1466 1462 1449 1449 1449 1452 1453 1456 1455 1454 1456 1458 1460 1462 1462 1464 1464 1464 1464 1465 1467 1467 1466 1465 1465 1464 1463 1462 1459 1458 1457 1457 1456 1455 1457 1457 1455 1455 1456 1455 1455 1455 1454
1464 1455 1444 1439 1449 1451 1450 1448 1449 1451 1453 1454 1457 1460 1460 1460 1460 1461 1463 1464 1464 1464 1464 1464 1464 1464 1463 1462 1460 1459 1458 1458 1458 1458 1458 1460 1460 1460 1460 1460 1460 1460 1459 1459
1469 1466 1450 1443 1446 1447 1448 1446 1447 1449 1451 1453 1456 1455 1454 1457 1459 1460 1461 1462 1462 1462 1461 1462 1462 1462 1461 1460 1460 1460 1460 1460 1461 1461 1462 1463 1463 1463 1463 1463 1463 1463 1462 1462
1463 1464 1448 1441 1447 1449 1450 1453 1448 1450 1451 1452 1454 1453 1454 1455 1457 1459 1459 1459 1460 1460 1460 1460 1460 1460 1461 1460 1460 1462 1462 1463 1464 1465 1465 1466 1467 1467 1466 1466 1466 1466 1465 1464
1459 1465 1459 1446 1449 1448 1449 1449 1450 1450 1450 1451 1452 1452 1454 1455 1456 1456 1456 1457 1458 1458 1459 1459 1460 1461 1461 1461 1462 1463 1465 1466 1467 1468 1468 1469 1469 1468 1468 1468 1468 1467 1466 1464
1451 1447 1443 1445 1446 1447 1447 1448 1449 1448 1449 1450 1451 1451 1452 1453 1454 1454 1455 1456 1457 1456 1458 1459 1460 1461 1462 1463 1464 1464 1467 1468 1469 1469 1470 1471 1470 1470 1470 1469 1469 1468 1467 1465
1445 1437 1441 1443 1445 1446 1446 1446 1448 1449 1449 1449 1449 1449 1450 1451 1451 1452 1453 1454 1455 1455 1457 1458 1460 1462 1464 1465 1466 1467 1468 1469 1469 1470 1471 1472 1472 1471 1470 1469 1469 1468 1466 1465
1439 1437 1440 1440 1441 1444 1444 1445 1447 1447 1447 1446 1447 1447 1447 1448 1449 1450 1451 1453 1454 1454 1456 1458 1459 1462 1464 1466 1467 1468 1469 1469 1470 1471 1472 1472 1471 1470 1470 1470 1469 1468 1466 1465
1434 1434 1435 1438 1440 1441 1443 1444 1444 1444 1444 1444 1444 1444 1445 1445 1447 1448 1449 1450 1451 1453 1454 1457 1458 1461 1463 1465 1467 1468 1469 1469 1470 1471 1471 1471 1471 1470 1470 1469 1468 1467 1465 1464
1435 1436 1438 1439 1439 1440 1441 1441 1441 1441 1441 1441 1441 1442 1442 1444 1444 1445 1447 1448 1449 1451 1453 1455 1457 1460 1463 1465 1466 1468 1469 1469 1470 1470 1471 1471 1470 1469 1468 1467 1465 1464 1463 1461
1434 1435 1436 1437 1437 1437 1438 1438 1438 1438 1438 1438 1439 1439 1439 1441 1441 1442 1443 1446 1448 1450 1452 1454 1456 1458 1461 1463 1465 1466 1467 1468 1469 1469 1469 1469 1468 1468 1467 1465 1464 1462 1461 1459
1432 1432 1433 1434 1434 1435 1435 1435 1435 1435 1435 1435 1435 1435 1436 1437 1437 1438 1441 1443 1446 1448 1450 1452 1454 1456 1458 1460 1462 1464 1465 1466 1467 1467 1467 1467 1467 1466 1465 1463 1462 1461 1459 1457
1429 1430 1430 1431 1431 1431 1431 1431 1431 1431 1432 1431 1431 1431 1431 1432 1434 1435 1437 1439 1441 1442 1446 1449 1451 1454 1456 1458 1459 1460 1462 1463 1464 1465 1465 1465 1464 1464 1463 1462 1460 1459 1458 1456
1426 1427 1427 1427 1428 1428 1428 1428 1428 1427 1427 1427 1427 1427 1427 1428 1429 1430 1432 1435 1437 1440 1443 1445 1449 1451 1454 1455 1457 1458 1459 1460 1461 1461 1462 1462 1462 1461 1460 1459 1458 1457 1455 1453
1424 1424 1424 1425 1424 1424 1424 1423 1423 1422 1422 1422 1423 1423 1423 1423 1424 1425 1428 1430 1433 1435 1438 1440 1445 1448 1450 1452 1454 1455 1456 1457 1458 1458 1459 1459 1458 1458 1457 1456 1455 1454 1452 1449
1420 1421 1421 1421 1421 1421 1420 1419 1418 1417 1417 1417 1417 1418 1419 1419 1420 1422 1423 1425 1426 1428 1431 1434 1438 1443 1445 1448 1450 1451 1453 1454 1455 1455 1456 1456 1455 1454 1454 1453 1452 1450 1448 1446
1419 1419 1419 1418 1418 1418 1417 1416 1415 1414 1412 1412 1413 1414 1415 1415 1417 1418 1419 1420 1422 1424 1427 1429 1431 1435 1440 1443 1445 1447 1448 1450 1450 1451 1452 1452 1452 1451 1451 1450 1448 1447 1445 1443
1419 1419 1419 1418 1417 1416 1415 1413 1412 1411 1411 1410 1411 1411 1412 1412 1413 1414 1414 1415 1417 1419 1421 1423 1425 1428 1431 1436 1440 1442 1443 1445 1446 1446 1447 1447 1447 1447 1446 1445 1444 1443 1441 1439
1420 1419 1419 1418 1417 1416 1415 1413 1412 1410 1409 1409 1408 1409 1409 1409 1409 1410 1411 1412 1413 1414 1415 1417 1419 1423 1426 1430 1432 1436 1438 1440 1441 1441 1442 1442 1442 1442 1442 1441 1440 1438 1436 1434
1419 1419 1418 1417 1416 1415 1414 1412 1411 1410 1409 1408 1407 1407 1406 1406 1406 1407 1407 1409 1409 1410 1411 1412 1415 1419 1422 1425 1426 1430 1433 1434 1435 1436 1436 1437 1437 1437 1437 1436 1435 1434 1431 1429
1418 1418 1417 1416 1415 1414 1413 1412 1410 1409 1408 1407 1406 1405 1405 1404 1404 1404 1404 1404 1405 1406 1407 1410 1412 1414 1417 1418 1420 1424 1427 1429 1430 1431 1432 1432 1432 1432 1432 1431 1430 1428 1426 1424
1417 1416 1415 1414 1413 1412 1411 1410 1409 1408 1406 1405 1404 1403 1403 1402 1402 1401 1401 1401 1401 1402 1402 1405 1407 1408 1410 1412 1415 1418 1421 1423 1425 1426 1426 1427 1427 1427 1427 1427 1425 1423 1421 1419
1415 1414 1413 1412 1412 1411 1409 1408 1407 1405 1404 1403 1402 1401 1401 1400 1399 1398 1398 1398 1398 1398 1398 1400 1401 1403 1404 1406 1409 1411 1414 1417 1418 1419 1420 1421 1422 1422 1422 1422 1420 1418 1416 1414
1412 1412 1412 1411 1410 1409 1408 1406 1405 1404 1402 1401 1400 1399 1398 1397 1397 1396 1395 1395 1394 1394 1395 1396 1397 1397 1399 1401 1403 1405 1408 1410 1412 1413 1415 1416 1416 1417 1417 1416 1415 1413 1411 1409
Wind_Speed
1 1 2 4 7 13 8 8 4 1 4 10 9 4 3 0 3 4 3 2 1 1 0 1 2 4 5 5 5 6 7 9 10 10 10 8 7 8 10 12 11 9 10 10
2 2 6 8 10 9 13 14 14 13 13 10 12 1 2 3 4 6 4 3 3 2 1 1 2 2 2 4 4 5 6 7 8 9 10 9 9 8 9 10 7 5 4 5
1 1 5 9 16 16 10 8 14 10 7 5 0 2 4 4 6 5 5 4 4 3 2 1 0 1 1 2 3 4 5 6 7 8 8 8 9 11 11 12 11 11 13 12
2 2 3 2 3 3 17 9 14 10 9 6 7 3 3 4 4 4 4 4 4 4 3 1 1 0 1 3 3 3 5 5 6 7 7 9 11 12 13 12 13 12 12 11
3 4 9 6 4 4 7 5 16 14 11 10 4 3 6 6 3 3 4 5 6 6 6 4 2 1 1 1 2 5 7 9 11 12 13 13 13 14 13 12 12 12 11 10
2 3 3 4 4 2 4 3 4 6 5 5 8 4 4 9 5 4 5 5 5 5 6 5 3 3 3 3 6 8 10 11 13 13 13 15 15 14 13 11 10 9 8 9
6 4 6 5 7 1 3 4 5 1 2 6 7 2 9 8 6 6 6 6 7 7 6 4 5 5 7 9 11 12 13 15 15 15 13 13 12 11 10 10 9 8 7 7
5 4 7 4 4 4 4 3 3 5 2 4 6 8 7 8 7 6 5 6 8 7 8 6 6 9 10 12 14 15 14 14 13 12 11 10 9 9 8 7 6 6 7 7
7 4 3 3 2 2 2 5 8 5 1 2 8 11 11 10 8 7 6 8 9 10 9 8 9 11 14 16 15 14 13 12 12 11 9 8 7 6 5 4 4 4 5 7
3 5 12 9 9 2 0 3 5 4 5 5 6 8 13 12 11 8 8 9 10 12 11 13 14 15 14 14 13 12 11 11 10 8 7 6 4 3 2 3 4 5 7 8
10 10 6 8 8 8 5 5 8 8 8 7 6 9 12 14 14 11 10 11 12 12 14 15 16 15 14 14 13 12 10 9 8 7 5 3 1 1 2 3 4 5 6 7
5 3 6 5 6 5 5 7 11 11 9 9 7 9 11 14 15 15 13 14 15 15 16 17 15 15 15 14 13 11 10 9 7 6 5 3 2 1 2 4 5 6 7 8
13 2 2 2 7 7 7 8 11 12 10 9 9 8 12 14 16 17 16 16 15 16 17 17 16 15 15 14 13 12 10 8 7 7 6 5 4 4 5 5 8 9 9 9
6 6 8 8 4 6 7 9 10 11 10 10 10 10 11 14 17 19 19 17 17 17 17 17 17 17 16 15 14 13 11 10 9 8 7 6 6 5 6 7 9 12 11 12
8 9 9 8 9 11 11 11 12 11 10 11 12 12 13 16 19 20 19 20 20 19 19 19 20 20 19 17 16 14 13 11 10 10 9 8 7 7 7 8 9 11 13 14
11 11 10 12 13 14 14 13 13 14 12 12 12 13 14 16 18 20 22 22 25 26 24 22 21 21 20 19 17 16 15 13 12 11 11 10 9 9 9 9 10 12 13 14
8 8 11 12 12 12 12 13 15 17 17 17 14 12 13 15 18 21 22 22 24 26 25 24 22 21 20 20 19 18 17 15 14 14 13 11 11 10 10 11 12 13 14 15
10 11 10 10 11 11 13 13 14 17 18 18 17 16 15 16 20 20 21 22 25 27 28 27 25 23 22 21 21 20 18 17 16 15 14 14 12 12 12 12 13 15 15 16
6 7 8 9 10 11 12 14 14 15 15 16 18 19 15 15 17 18 18 21 25 29 31 31 27 26 25 23 22 21 20 19 18 17 16 15 14 13 13 14 15 16 16 17
2 3 4 5 6 7 8 9 9 9 10 11 13 15 16 15 15 17 18 21 23 25 27 29 31 30 26 24 24 23 23 21 20 19 18 16 15 15 14 15 16 17 17 19
2 2 3 3 3 4 5 6 6 5 5 5 8 10 12 13 14 16 18 21 21 22 24 27 31 31 32 27 26 26 25 23 22 20 19 17 16 16 16 16 17 18 19 20
1 2 4 4 4 5 6 7 6 6 5 5 7 9 11 13 14 16 17 18 17 19 21 24 27 29 31 30 29 27 27 25 23 22 20 19 18 17 17 17 18 19 20 20
2 4 6 6 6 6 7 8 8 7 7 7 8 8 9 11 12 14 15 13 15 16 18 20 22 24 27 28 27 28 27 26 24 22 20 19 18 17 17 18 19 19 20 21
4 6 7 7 7 7 7 8 9 9 8 8 8 8 10 11 12 14 14 15 15 14 19 18 20 21 23 27 29 28 28 26 25 23 21 20 19 18 18 18 19 19 21 22
6 7 7 7 7 7 8 9 8 8 8 8 8 8 9 10 11 12 13 14 15 17 18 18 22 23 25 28 28 27 27 27 25 23 21 21 19 19 18 19 19 19 22 23
7 7 7 7 8 9 10 10 10 11 10 9 8 9 9 10 10 11 12 12 14 15 17 18 19 23 26 29 28 28 26 27 25 24 23 21 19 19 19 20 20 21 23 23
8 8 7 8 8 9 10 11 11 10 11 12 12 10 10 10 10 11 11 12 13 15 17 16 19 23 25 28 28 27 27 27 26 25 23 21 21 20 20 20 20 22 23 23
Wind_Direction
333 40 199 234 214 206 203 217 221 68 227 162 171 280 275 194 195 212 225 234 256 229 298 347 344 350 358 350 354 359 7 10 11 7 5 356 352 344 334 338 332 326 316 302
246 229 248 255 243 225 221 232 245 262 274 279 275 307 280 266 230 228 236 226 221 220 202 316 345 324 354 346 357 6 6 17 16 20 15 4 23 18 9 12 1 27 55 68
250 227 280 262 234 216 210 214 218 229 247 183 152 259 312 267 233 237 236 214 206 200 183 176 223 1 351 317 332 9 21 23 26 41 42 39 48 51 59 69 74 76 77 78
298 262 244 79 87 203 218 219 219 233 241 227 271 287 238 227 214 234 220 208 206 187 179 161 138 60 345 322 4 40 52 57 63 64 67 77 80 85 84 84 82 80 76 74
257 239 297 232 191 180 170 225 224 232 245 258 251 169 221 198 213 212 208 198 191 193 199 185 185 178 253 18 73 92 93 94 91 90 91 92 93 89 85 83 86 83 82 83
82 272 265 57 127 197 208 151 107 202 224 234 168 226 139 183 195 192 183 187 192 193 208 213 200 160 185 156 121 117 111 109 104 101 100 96 93 93 94 90 86 82 77 73
227 264 295 130 134 18 235 104 96 116 235 205 207 339 142 171 185 188 184 189 187 187 193 199 190 184 156 134 128 123 116 109 105 101 98 97 99 97 95 91 84 78 69 62
209 225 253 133 139 227 58 85 17 339 289 244 237 231 203 191 191 195 185 190 178 176 186 187 182 163 151 142 131 124 117 117 117 113 110 109 105 98 88 77 63 46 30 18
211 215 96 157 357 38 353 353 343 335 310 240 226 221 211 208 203 198 198 190 183 190 181 176 164 156 151 138 131 127 128 126 122 120 120 113 105 96 82 61 35 14 4 352
200 234 236 234 216 261 204 34 341 313 279 273 231 230 218 215 212 215 209 195 186 185 182 170 157 151 154 147 144 141 143 137 133 133 131 126 120 104 75 31 11 354 345 344
244 262 259 244 209 202 184 224 303 309 283 273 248 223 226 221 216 214 209 197 186 188 178 170 164 162 163 161 160 158 157 154 154 153 152 147 140 56 4 350 340 330 328 325
242 359 250 57 114 182 231 276 280 294 282 281 254 226 220 222 221 218 209 199 190 183 180 178 175 172 173 174 172 173 175 175 175 174 177 192 237 278 306 320 328 332 330 325
267 346 257 219 254 266 253 271 275 280 269 257 261 235 223 218 223 220 213 208 201 196 189 189 187 184 186 188 186 186 192 196 196 202 208 222 248 278 307 324 331 338 336 331
235 242 259 241 235 250 285 285 277 270 265 259 255 253 232 215 225 222 220 217 207 202 203 200 199 198 197 197 199 200 204 208 214 220 227 241 257 271 291 309 321 326 329 322
223 235 246 243 268 279 283 285 278 276 270 266 265 259 243 226 230 230 224 218 212 210 212 212 206 205 203 204 206 209 213 219 226 230 238 249 261 271 287 302 310 315 318 318
228 249 265 274 276 277 279 280 280 274 267 269 267 263 254 240 237 233 227 221 215 213 214 220 217 213 209 211 212 214 218 223 230 236 243 252 263 272 283 298 306 309 312 313
225 249 265 272 276 276 274 273 270 271 271 266 262 268 255 241 233 232 230 226 225 224 222 223 223 220 220 218 220 223 225 228 233 238 245 254 262 270 280 292 300 305 309 311
247 252 265 269 275 280 280 279 280 275 270 267 256 259 258 247 242 242 235 229 228 228 225 227 226 223 223 225 226 228 230 233 238 242 247 253 261 269 277 286 296 302 307 311
249 254 262 270 275 280 286 291 285 277 269 263 253 252 258 254 246 245 240 234 232 229 228 226 223 223 226 228 230 231 234 237 240 244 248 254 260 269 277 285 294 300 305 310
251 264 268 274 277 276 294 306 299 295 275 260 252 248 253 254 249 247 242 241 243 244 240 233 227 221 223 229 232 234 237 239 241 245 249 255 263 272 278 283 291 299 304 308
42 23 5 350 328 321 320 326 325 310 303 272 251 248 250 249 247 245 245 246 247 246 244 239 232 225 219 219 232 235 238 240 242 246 250 256 263 271 278 283 291 298 303 306
63 21 9 8 4 349 344 342 331 326 312 288 270 263 263 260 254 252 252 253 253 248 247 243 236 231 231 224 222 233 238 240 243 245 249 255 262 269 278 284 290 296 302 305
7 356 350 345 341 338 334 336 338 335 323 305 296 290 277 264 263 263 263 261 258 254 247 240 237 235 230 226 229 234 238 240 243 246 250 255 262 270 278 285 289 295 301 305
341 339 338 339 338 335 330 328 324 324 324 321 309 296 287 280 272 269 268 268 260 251 250 249 243 237 237 237 236 235 238 243 244 247 250 255 261 269 276 284 288 295 302 305
312 317 318 322 325 325 327 329 328 320 312 312 313 311 305 296 290 283 275 273 265 253 250 243 238 230 233 236 234 235 239 244 246 248 250 255 259 267 275 284 288 298 302 305
302 304 308 315 321 326 330 332 330 326 319 309 302 300 303 304 301 295 288 279 269 266 260 253 240 238 236 235 233 236 238 243 243 244 249 253 259 265 273 282 293 299 301 304
284 285 294 306 314 320 323 325 326 327 324 322 318 308 305 302 298 297 296 291 283 274 269 262 253 240 238 240 239 238 240 241 243 245 248 251 257 261 267 277 291 298 303 303